ROMMA est une association bénévole à but non lucratif. Votre soutien est indispensable : ADHERER à ROMMA ou FAIRE un DON

Miribel-les-Echelles - (38, Isère)

Massif de la Chartreuse (760 m)   Longitude: 05° 41' 54'' E   Latitude: 45° 26' 40'' N Station romma n°22
 

Détail journalier du     <<     >>

Température Precipitation Humidité Pression Vent Dir Rafale Dir. rafale Ensol.
Heure (°C) (mm) (%) (hPa) (km/h) (km/h) (min)
01:00 9.409510232SE6SSE0
02:00 9.109510231S11S0
03:00 9.2096102303SSO0
04:00 8.909510231SSE6S0
05:00 8.809610222SSO8SSO0
06:00 8.909610221S6S0
07:00 8.2094102203SE0
08:00 8.8094102303OSO0
09:00 10.2090102303OSO30
10:00 13.1079102305ESE60
11:00 14.907810231ESE5ESE60
12:00 16.307610231ESE6S60
13:00 15.407910233ENE10ESE60
14:00 16.907210233ESE13SE60
15:00 17.407110234SSO15SO60
16:00 17.707010222O6O60
17:00 18.1070102205NO60
18:00 14.508010221SSO8SSO30
19:00 12.6087102203SO0
20:00 12.1087102202OSO0
21:00 12.1088102203OSO0
22:00 12.0087102302OSO0
23:00 11.408710231ONO6ONO0
minuit 10.8087102302O0

Graphique du 26-10-2019

 

Serveur OMMA